Hourly Data Report for October 11, 2013

All times are specified in Local Standard Time (LST). Add 1 hour to adjust for Daylight Saving Time where and when it is observed.

PETAWAWA AWOS 2
ONTARIO

45°57'00.000" N
77°19'00.000" W
130.10 m
6106396
71625
YWA

Related Data

No related data is available for this station

Download Data

Hourly Data (October 2013)
Hourly Data Report for October 11, 2013
Temp Definition
°C
Dew Point Temp Definition
°C
Rel Hum Definition
%
Wind Dir Definition
10's deg

Wind Spd Definition
km/h
Visibility Definition
km
Stn Press Definition
kPa
Hmdx Definition


Wind Chill Definition


Weather Definition


TIME
00:00 4.0 3.9 99 23 4 15.0 100.64      
01:00 3.2 3.0 99 23 4 15.0 100.68      
02:00 2.9 2.6 98 23 4 15.0 100.68      
03:00 2.1 2.0 99 23 6 5.6 100.67      
04:00 1.6 1.2 97 24 4 15.0 100.74      
05:00 2.3 2.3 100 24 4 12.9 100.73      
06:00 2.3 2.0 98 20 4 15.0 100.74      
07:00 3.3 2.9 97 28 6 8.0 100.80      
08:00 6.6 6.1 97 27 4 15.0 100.81      
09:00 10.6 8.7 88 31 4 15.0 100.82      
10:00 13.2 8.8 75 34 4 15.0 100.79      
11:00 15.7 11.8 78 3 4 15.0 100.77      
12:00 18.4 10.2 59   0 15.0 100.70      
13:00 20.3 8.5 47 13 4 15.0 100.63      
14:00 21.3 9.2 46   0 15.0 100.59      
15:00 22.6 9.1 42   0 15.0 100.56      
16:00 22.8 7.7 38   0 15.0 100.55      
17:00 18.0 11.6 66   0 15.0 100.57      
18:00 14.2 10.4 78   0 15.0 100.59      
19:00 11.4 9.7 89   0 15.0 100.61      
20:00 9.7 8.3 91   0 15.0 100.62      
21:00 7.9 7.7 99 24 4 15.0 100.65      
22:00 6.6 6.0 96 20 4 15.0 100.63      
23:00 5.5 4.9 96 23 4 15.0 100.64      

Notes on Data Quality.

Legend

  • E = Estimated
  • M = Missing
  • NA = Not Available
  • ‡ = Partner data that is not subject to review by the National Climate Archives
Date modified: